This is the latest recevied weather packets stored in our database for station/object KD4EG. If no packets are shown the sender has not sent any weather packets the latest 10 day(s).
| Time | Temp. | Humidity | Pressure | Rain* | Wind** | Luminosity | Snow |
|---|---|---|---|---|---|---|---|
| 1777468651 | 15.56° C | 94% | 1015.4 hPa | 0 mm | - | 42 W/m² | - |
| 1777468348 | 15.56° C | 94% | 1015.4 hPa | 0 mm | - | 39 W/m² | - |
| 1777468044 | 15.56° C | 94% | 1015.7 hPa | 0 mm | - | 32 W/m² | - |
| 1777467740 | 15.56° C | 94% | 1015.7 hPa | 0 mm | - | 28 W/m² | - |
| 1777467436 | 15.56° C | 94% | 1015.5 hPa | 0 mm | - | 30 W/m² | - |
| 1777467131 | 15.56° C | 94% | 1015.5 hPa | 0 mm | - | 33 W/m² | - |
| 1777466829 | 15.56° C | 94% | 1015.5 hPa | 0 mm | - | 33 W/m² | - |
| 1777466527 | 15.56° C | 94% | 1015.6 hPa | 0 mm | - | 20 W/m² | - |
| 1777466223 | 15.56° C | 94% | 1015.4 hPa | 0 mm | - | 21 W/m² | - |
| 1777465919 | 15.56° C | 94% | 1015.7 hPa | 0 mm | - | 29 W/m² | - |
| 1777465615 | 15.56° C | 93% | 1015.5 hPa | 0 mm | - | 28 W/m² | - |
| 1777465311 | 15.56° C | 93% | 1015.4 hPa | 0 mm | - | 30 W/m² | - |
| 1777465005 | 15.56° C | 94% | 1015.1 hPa | 0 mm | - | 62 W/m² | - |
| 1777464700 | 15.56° C | 94% | 1014.9 hPa | 0 mm | - | 92 W/m² | - |
| 1777464397 | 15.56° C | 94% | 1015.2 hPa | 0 mm | - | 71 W/m² | - |
| 1777464093 | 15.56° C | 95% | 1015.2 hPa | 0 mm | - | 75 W/m² | - |
| 1777463792 | 15° C | 95% | 1015.3 hPa | 0 mm | - | 56 W/m² | - |
| 1777463487 | 15° C | 95% | 1015.4 hPa | 0 mm | - | 32 W/m² | - |
| 1777463184 | 15° C | 95% | 1015.2 hPa | 0 mm | - | 26 W/m² | - |
| 1777462879 | 15° C | 95% | 1015.2 hPa | 0 mm | - | 29 W/m² | - |
| 1777462576 | 15° C | 95% | 1015 hPa | 0 mm | - | 26 W/m² | - |
| 1777462271 | 15° C | 95% | 1015.3 hPa | 0 mm | - | 30 W/m² | - |
| 1777461967 | 15° C | 95% | 1015.4 hPa | 0 mm | - | 23 W/m² | - |
| 1777461664 | 15° C | 95% | 1015.5 hPa | 0 mm | - | 19 W/m² | - |
| 1777461359 | 15° C | 95% | 1015.5 hPa | 0 mm | - | 16 W/m² | - |
* Rain latest hour (hover to see other rain measurements)
** Current wind speed in m/s (hover to see current wind gust speed)